カタログに戻る

ONEWEB-0379

運用中通信PO
NORAD 49305·PAYLOAD·🇬🇧 United Kingdom

打ち上げ Oct 14, 2021 から Vostochny Cosmodrome

Loading…

次のパス (今後24時間)

TLE

最新Source: CelesTrak SupGP

元期: Sep 14, 2026, 17:05 UTC

1 49305C 21090AC  26257.71199492 -.00002203  00000+0 -59487-2 0  2577
2 49305  87.8902 271.8551 0002101  92.3123 304.5150 13.14504867    18

AllMySatでONEWEB-0379をリアルタイム追跡

Download on the App Store